DW7394 Weather Reports


Display with metric or nautical units.
time (UTC)temp
F
wind
direction
speed
MPH
gust
MPH
rain 1hr
in
rain 24hr
in
rain mn
in
humidity
%
barometer
mb
20260906002009 69 41 1.0 5.0 0.00 0.00 0.00 65 1013.6
20260906001509 69 84 1.0 5.0 0.00 0.00 0.00 65 1013.5
20260906001013 69 84 1.0 4.0 0.00 0.00 0.00 65 1013.5
20260906000509 69 58 1.0 4.0 0.00 0.00 0.00 64 1013.5
20260906000009 70 35 1.0 4.0 0.00 0.00 0.00 64 1013.4
20260905235508 70 34 2.0 5.0 0.00 0.00 0.00 64 1013.2
20260905235011 70 18 2.0 6.0 0.00 0.00 0.00 63 1013.2
20260905234507 70 48 3.0 8.0 0.00 0.00 0.00 63 1013.2
20260905234013 70 67 2.0 8.0 0.00 0.00 0.00 63 1013.2
20260905233510 70 15 3.0 6.0 0.00 0.00 0.00 63 1013.3
20260905233007 70 67 2.0 8.0 0.00 0.00 0.00 63 1013.3
20260905232510 71 356 3.0 8.0 0.00 0.00 0.00 63 1013.4
20260905232007 71 27 3.0 8.0 0.00 0.00 0.00 62 1013.2
20260905231507 71 36 2.0 10.0 0.00 0.00 0.00 62 1013.1
20260905231008 71 25 5.0 10.0 0.00 0.00 0.00 62 1013.1
20260905230507 71 347 5.0 12.0 0.00 0.00 0.00 63 1013.1
20260905230005 71 15 5.0 12.0 0.00 0.00 0.00 64 1013.1
20260905225504 71 20 3.0 9.0 0.00 0.00 0.00 66 1013.1
20260905225003 71 9 4.0 13.0 0.00 0.00 0.00 66 1013.1
20260905224503 72 18 5.0 13.0 0.00 0.00 0.00 67 1013.0
20260905224005 72 356 5.0 13.0 0.00 0.00 0.00 68 1013.0
20260905223502 72 4 5.0 13.0 0.00 0.00 0.00 68 1013.0
20260905223011 72 34 5.0 11.0 0.00 0.00 0.00 68 1013.0
20260905222502 72 4 6.0 11.0 0.00 0.00 0.00 68 1012.9
20260905222001 72 27 5.0 14.0 0.00 0.00 0.00 68 1012.8
20260905221501 72 18 8.0 14.0 0.00 0.00 0.00 68 1012.8
20260905221001 72 16 6.0 14.0 0.00 0.00 0.00 68 1012.6
20260905220601 73 25 7.0 14.0 0.00 0.00 0.00 68 1012.6
20260905220001 73 22 7.0 17.0 0.00 0.00 0.00 68 1012.6
20260905215604 73 15 9.0 17.0 0.00 0.00 0.00 68 1012.6
20260905215059 73 18 5.0 15.0 0.00 0.00 0.00 69 1012.5
20260905214559 73 338 6.0 18.0 0.00 0.00 0.00 68 1012.4
20260905214100 73 327 11.0 18.0 0.00 0.00 0.00 68 1012.5
20260905213558 74 20 10.0 18.0 0.00 0.00 0.00 68 1012.4
20260905213100 74 4 6.0 15.0 0.00 0.00 0.00 68 1012.3
20260905212558 74 13 9.0 15.0 0.00 0.00 0.00 68 1012.4
20260905212057 74 3 10.0 16.0 0.00 0.00 0.00 68 1012.3
20260905211559 75 8 9.0 17.0 0.00 0.00 0.00 69 1012.3
20260905211100 75 27 11.0 19.0 0.00 0.00 0.00 68 1012.2
20260905210600 75 41 7.0 19.0 0.00 0.00 0.00 69 1012.3
20260905210059 75 343 11.0 18.0 0.00 0.00 0.00 69 1012.3
20260905205555 75 6 9.0 16.0 0.00 0.00 0.00 70 1012.3
20260905205059 74 39 8.0 17.0 0.00 0.00 0.00 70 1012.3
20260905204559 74 359 10.0 17.0 0.00 0.00 0.00 70 1012.2
20260905204057 74 8 7.0 13.0 0.00 0.00 0.00 71 1012.3
20260905203553 74 44 8.0 13.0 0.00 0.00 0.00 70 1012.3
20260905203100 75 39 8.0 15.0 0.00 0.00 0.00 70 1012.4
20260905202654 75 359 8.0 15.0 0.00 0.00 0.00 70 1012.5
20260905202053 75 336 7.0 15.0 0.00 0.00 0.00 70 1012.5
20260905201603 75 36 9.0 15.0 0.00 0.00 0.00 70 1012.5
20260905201052 75 317 6.0 13.0 0.00 0.00 0.00 70 1012.5
20260905200553 76 341 8.0 20.0 0.00 0.00 0.00 70 1012.5
20260905200056 76 342 9.0 20.0 0.00 0.00 0.00 71 1012.5
20260905195553 76 37 6.0 20.0 0.00 0.00 0.00 71 1012.5
20260905195051 76 346 9.0 20.0 0.00 0.00 0.00 72 1012.5
20260905194549 76 342 11.0 18.0 0.00 0.00 0.00 71 1012.6
20260905194051 77 343 9.0 16.0 0.00 0.00 0.00 72 1012.4
20260905193549 77 37 7.0 13.0 0.00 0.00 0.00 72 1012.4
20260905193047 77 6 8.0 13.0 0.00 0.00 0.00 73 1012.4
20260905192546 77 309 4.0 12.0 0.00 0.00 0.00 74 1012.3
20260905192049 77 331 4.0 12.0 0.00 0.00 0.00 74 1012.4
20260905191544 76 10 5.0 12.0 0.00 0.00 0.00 75 1012.4
20260905191044 76 20 5.0 10.0 0.00 0.00 0.00 76 1012.4
20260905190543 75 309 4.0 9.0 0.00 0.00 0.00 75 1012.4
20260905190041 75 27 5.0 9.0 0.00 0.01 0.00 76 1012.5
20260905185540 75 4 4.0 8.0 0.00 0.01 0.00 76 1012.7
20260905185039 75 23 4.0 10.0 0.00 0.01 0.00 76 1012.7
20260905184545 75 16 5.0 10.0 0.00 0.01 0.00 76 1012.7
20260905184038 75 48 6.0 10.0 0.00 0.01 0.00 76 1012.7
20260905183538 75 27 4.0 13.0 0.00 0.01 0.00 76 1012.9
20260905183048 75 356 8.0 17.0 0.00 0.01 0.00 76 1012.8
20260905182538 76 42 7.0 17.0 0.00 0.01 0.00 76 1012.8
20260905182042 76 335 6.0 11.0 0.00 0.01 0.00 76 1012.8
20260905181537 76 356 4.0 12.0 0.00 0.01 0.00 77 1012.8
20260905181039 76 3 7.0 12.0 0.00 0.01 0.00 77 1012.9
20260905180541 76 39 5.0 11.0 0.00 0.01 0.00 76 1012.9
20260905180043 76 9 5.0 11.0 0.00 0.02 0.00 76 1012.9
20260905175537 76 356 5.0 10.0 0.00 0.02 0.00 77 1012.9
20260905175036 76 32 5.0 11.0 0.00 0.02 0.00 77 1012.9
20260905174535 76 6 6.0 11.0 0.00 0.02 0.00 77 1012.9
20260905174034 76 18 4.0 9.0 0.00 0.02 0.00 76 1012.9
20260905173534 76 49 4.0 10.0 0.00 0.02 0.00 77 1012.9
20260905173032 76 16 3.0 10.0 0.00 0.02 0.00 80 1012.8
20260905172531 75 13 4.0 9.0 0.00 0.02 0.00 82 1012.8
20260905172030 75 27 5.0 9.0 0.00 0.02 0.00 83 1012.8
20260905171531 74 356 3.0 12.0 0.00 0.02 0.00 83 1013.0
20260905171027 74 356 6.0 12.0 0.00 0.02 0.00 84 1013.0
20260905170526 74 27 7.0 11.0 0.00 0.02 0.00 85 1013.0
20260905170025 73 27 5.0 10.0 0.00 0.10 0.00 86 1013.0
20260905165524 73 20 2.0 7.0 0.00 0.10 0.00 86 1013.0
20260905165024 73 27 2.0 9.0 0.00 0.10 0.00 86 1013.1
20260905164522 73 51 5.0 10.0 0.00 0.10 0.00 87 1013.2
20260905164021 73 39 6.0 10.0 0.00 0.10 0.00 87 1013.1
20260905163523 73 16 3.0 10.0 0.00 0.10 0.00 88 1013.2
20260905163023 73 105 4.0 9.0 0.00 0.10 0.00 89 1013.2
20260905162522 73 156 2.0 9.0 0.00 0.10 0.00 90 1013.3
20260905162017 72 136 4.0 9.0 0.00 0.10 0.00 90 1013.3
20260905161518 72 100 4.0 9.0 0.00 0.10 0.00 90 1013.3
20260905161017 72 78 4.0 8.0 0.00 0.10 0.00 90 1013.3
20260905160516 72 46 2.0 7.0 0.00 0.10 0.00 90 1013.4
20260905160011 72 54 2.0 7.0 0.00 0.10 0.00 90 1013.4
20260905155510 72 102 2.0 7.0 0.00 0.10 0.00 90 1013.5
20260905155008 72 20 2.0 7.0 0.00 0.10 0.00 91 1013.4
20260905154506 71 72 2.0 10.0 0.00 0.10 0.00 91 1013.4
20260905154005 72 81 4.0 10.0 0.00 0.10 0.00 91 1013.3
20260905153504 71 98 2.0 6.0 0.00 0.10 0.00 91 1013.2
20260905153006 71 93 2.0 6.0 0.00 0.10 0.00 91 1013.2
20260905152504 71 108 2.0 6.0 0.00 0.10 0.00 91 1013.2
20260905152002 71 15 2.0 7.0 0.00 0.10 0.00 92 1013.2
20260905151602 71 93 3.0 7.0 0.00 0.10 0.00 92 1013.1
20260905151001 71 79 3.0 8.0 0.00 0.10 0.00 92 1013.0
20260905150603 71 76 4.0 8.0 0.00 0.10 0.00 92 1013.0
20260905150101 71 102 3.0 6.0 0.00 0.17 0.00 92 1013.1
20260905145600 71 78 2.0 5.0 0.00 0.17 0.00 92 1013.0
20260905145057 71 119 1.0 5.0 0.00 0.17 0.00 92 1013.1
20260905144556 71 98 2.0 6.0 0.00 0.17 0.00 92 1013.1
20260905144054 71 108 3.0 6.0 0.00 0.17 0.00 92 1013.0
20260905143554 70 8 2.0 6.0 0.00 0.17 0.00 92 1013.0
20260905143054 70 65 2.0 6.0 0.00 0.17 0.00 92 1012.8
20260905142553 70 77 3.0 6.0 0.00 0.17 0.00 92 1012.8
20260905142053 70 93 3.0 6.0 0.00 0.17 0.00 92 1012.8
20260905141552 71 58 3.0 7.0 0.00 0.17 0.00 92 1012.7
20260905141050 71 96 3.0 7.0 0.00 0.17 0.00 92 1012.7
20260905140550 70 112 4.0 6.0 0.00 0.17 0.00 92 1012.8
20260905140100 70 96 3.0 6.0 0.00 0.32 0.00 92 1012.8
20260905135550 71 8 2.0 6.0 0.00 0.32 0.00 92 1012.8
20260905135047 70 84 3.0 5.0 0.00 0.32 0.00 92 1012.9
20260905134551 70 93 2.0 6.0 0.00 0.32 0.00 92 1012.7
20260905134050 70 132 2.0 6.0 0.00 0.32 0.00 93 1012.7
20260905133544 70 134 1.0 4.0 0.00 0.32 0.00 93 1012.8
20260905133044 70 162 1.0 5.0 0.00 0.32 0.00 93 1012.8
20260905132544 70 84 2.0 5.0 0.00 0.32 0.00 92 1012.8
20260905132043 70 109 2.0 4.0 0.00 0.32 0.00 92 1012.9
20260905131508 70 41 1.0 5.0 0.00 0.32 0.00 92 1012.9
20260905131008 70 119 2.0 6.0 0.00 0.32 0.00 92 1012.9
20260905130508 70 97 3.0 6.0 0.00 0.32 0.00 92 1012.9
20260905130008 70 105 4.0 6.0 0.00 0.32 0.00 92 1012.9
20260905125506 70 78 3.0 5.0 0.00 0.32 0.00 92 1013.0
20260905125007 69 54 2.0 5.0 0.00 0.32 0.00 92 1013.0
20260905124513 69 76 2.0 4.0 0.00 0.32 0.00 92 1012.9
20260905124004 69 125 2.0 3.0 0.00 0.32 0.00 92 1013.0
20260905123505 69 84 0.0 3.0 0.00 0.32 0.00 92 1013.0
20260905123004 69 264 1.0 3.0 0.00 0.32 0.00 92 1013.0
20260905122504 69 192 0.0 4.0 0.00 0.32 0.00 92 1013.0
20260905122004 69 236 1.0 4.0 0.00 0.32 0.00 92 1012.9
20260905121504 69 236 1.0 5.0 0.00 0.32 0.00 92 1012.7
20260905121004 69 84 3.0 5.0 0.00 0.32 0.00 92 1012.6
20260905120503 69 147 1.0 4.0 0.00 0.32 0.00 92 1012.7
20260905120001 69 93 2.0 3.0 0.00 0.32 0.00 92 1012.7
20260905115604 69 100 2.0 3.0 0.00 0.32 0.00 92 1012.7
20260905115102 68 54 0.0 2.0 0.00 0.32 0.00 92 1012.7
20260905114559 69 309 1.0 2.0 0.00 0.32 0.00 92 1012.5
20260905114058 69 130 0.0 2.0 0.00 0.32 0.00 92 1012.4
20260905113600 69 84 0.0 2.0 0.00 0.32 0.00 92 1012.5
20260905113106 69 173 0.0 2.0 0.00 0.32 0.00 92 1012.5
20260905112557 69 236 0.0 2.0 0.00 0.32 0.00 92 1012.6
20260905112055 69 173 0.0 3.0 0.00 0.32 0.00 92 1012.6
20260905111601 69 264 2.0 3.0 0.00 0.32 0.00 92 1012.7
20260905111056 69 41 0.0 2.0 0.00 0.32 0.00 92 1012.6
20260905110555 69 309 0.0 2.0 0.00 0.32 0.00 92 1012.7
20260905110055 69 41 1.0 2.0 0.00 0.32 0.00 92 1012.8
20260905105555 69 30 1.0 3.0 0.00 0.32 0.00 92 1012.9
20260905105055 69 84 1.0 4.0 0.00 0.32 0.00 92 1012.8
20260905104609 69 218 1.0 6.0 0.00 0.32 0.00 92 1013.0
20260905104054 69 140 3.0 6.0 0.00 0.32 0.00 92 1013.2
20260905103554 69 236 2.0 6.0 0.00 0.32 0.00 92 1013.3
20260905103055 69 201 2.0 4.0 0.00 0.32 0.00 92 1013.3
20260905102553 69 41 1.0 6.0 0.00 0.32 0.00 92 1013.3
20260905102056 69 236 2.0 6.0 0.00 0.32 0.00 92 1013.4
20260905101553 69 208 1.0 6.0 0.00 0.32 0.00 92 1013.3
20260905101053 69 192 3.0 6.0 0.00 0.32 0.00 91 1013.5
20260905100553 69 241 1.0 3.0 0.00 0.32 0.00 91 1013.5
20260905100053 69 201 2.0 3.0 0.00 0.32 0.00 91 1013.4
20260905095552 69 248 0.0 3.0 0.00 0.32 0.00 91 1013.1
20260905095052 69 218 1.0 3.0 0.00 0.32 0.00 91 1013.1
20260905094552 69 240 1.0 3.0 0.00 0.32 0.00 91 1013.0
20260905094054 69 229 1.0 3.0 0.00 0.32 0.00 91 1012.8
20260905093555 69 201 0.0 2.0 0.00 0.32 0.00 91 1012.8
20260905093052 69 201 0.0 3.0 0.00 0.32 0.00 91 1012.6
20260905092553 69 100 0.0 3.0 0.00 0.32 0.00 91 1012.5
20260905092051 69 34 1.0 3.0 0.00 0.32 0.00 92 1012.4
20260905091551 69 67 1.0 3.0 0.00 0.32 0.00 91 1012.3
20260905091050 68 143 1.0 3.0 0.00 0.32 0.00 91 1012.3
20260905090550 68 119 0.0 3.0 0.00 0.32 0.00 91 1012.4
20260905090113 68 51 1.0 4.0 0.00 0.32 0.00 91 1012.4
20260905085550 68 103 1.0 4.0 0.00 0.32 0.00 91 1012.3
20260905085053 68 137 2.0 4.0 0.00 0.32 0.00 91 1012.3
20260905084550 68 201 1.0 3.0 0.00 0.32 0.00 91 1012.3
20260905084049 68 137 1.0 3.0 0.00 0.32 0.00 91 1012.3
20260905083550 68 173 0.0 3.0 0.00 0.32 0.00 91 1012.1
20260905083049 67 173 1.0 4.0 0.00 0.32 0.00 91 1011.9
20260905082549 67 122 1.0 4.0 0.00 0.32 0.00 91 1011.6
20260905082049 67 100 1.0 3.0 0.00 0.32 0.00 91 1011.4
20260905081548 67 97 1.0 2.0 0.00 0.32 0.00 91 1011.6
20260905081048 67 84 0.0 2.0 0.00 0.32 0.00 91 1011.7
20260905080546 67 130 1.0 2.0 0.00 0.32 0.00 90 1011.9
20260905080046 67 173 0.0 3.0 0.00 0.32 0.00 90 1011.9
20260905075546 68 130 1.0 3.0 0.00 0.32 0.00 90 1012.0
20260905075044 68 51 2.0 3.0 0.00 0.32 0.00 90 1012.1
20260905074547 67 67 0.0 2.0 0.00 0.32 0.00 90 1012.1
20260905074044 68 41 0.0 3.0 0.00 0.32 0.00 90 1012.2
20260905073544 68 156 1.0 3.0 0.00 0.32 0.00 90 1012.1
20260905073046 68 188 1.0 2.0 0.00 0.32 0.00 90 1012.1
20260905072545 68 218 0.0 2.0 0.00 0.32 0.00 90 1012.0
20260905072042 68 252 1.0 2.0 0.00 0.32 0.00 90 1012.2
20260905071542 68 218 0.0 2.0 0.00 0.32 0.00 90 1012.1
20260905071041 68 218 1.0 2.0 0.00 0.32 0.00 90 1012.2
20260905070541 68 229 0.0 2.0 0.00 0.32 0.00 90 1012.0
20260905070047 68 147 1.0 2.0 0.00 0.32 0.00 90 1011.9
20260905065542 68 192 0.0 2.0 0.00 0.32 0.00 90 1012.1
20260905065038 68 173 0.0 2.0 0.00 0.32 0.00 90 1012.2
20260905064538 69 147 0.0 2.0 0.00 0.32 0.00 90 1012.2
20260905064038 69 41 0.0 3.0 0.00 0.32 0.00 90 1012.2
20260905063536 69 84 0.0 3.0 0.00 0.32 0.00 90 1012.2
20260905063036 69 130 1.0 3.0 0.00 0.32 0.00 90 1012.1
20260905062535 69 156 1.0 3.0 0.00 0.32 0.00 90 1012.4
20260905062034 69 137 1.0 3.0 0.00 0.32 0.00 90 1012.5
20260905061538 69 356 0.0 3.0 0.00 0.32 0.00 90 1012.6
20260905061033 69 119 1.0 3.0 0.00 0.32 0.00 90 1012.7
20260905060531 69 41 0.0 2.0 0.00 0.32 0.00 90 1012.9
20260905060031 69 201 0.0 2.0 0.00 0.32 0.00 90 1012.9
20260905055530 69 84 0.0 3.0 0.00 0.32 0.00 90 1013.0
20260905055031 69 112 0.0 3.0 0.00 0.32 0.00 90 1013.1
20260905054533 69 218 1.0 3.0 0.00 0.32 0.00 90 1013.2
20260905054027 69 147 0.0 2.0 0.00 0.32 0.00 90 1013.1
20260905053526 69 112 1.0 3.0 0.00 0.32 0.00 90 1013.1
20260905053025 69 84 0.0 3.0 0.00 0.32 0.00 90 1013.2
20260905052526 69 147 1.0 3.0 0.00 0.32 0.00 90 1013.3
20260905052024 69 122 1.0 3.0 0.00 0.32 0.00 90 1013.3
20260905051523 69 112 1.0 2.0 0.00 0.32 0.00 90 1013.3
20260905051022 69 84 0.0 2.0 0.00 0.32 0.00 90 1013.4
20260905050521 69 130 0.0 2.0 0.00 0.32 0.00 90 1013.5
20260905050021 69 173 0.0 2.0 0.00 0.32 0.00 89 1013.4
20260905045523 69 147 0.0 2.0 0.00 0.32 0.00 89 1013.3
20260905045019 69 41 0.0 3.0 0.00 0.32 0.00 89 1013.3
20260905044525 69 173 0.0 4.0 0.00 0.32 0.00 89 1013.3
20260905044017 70 4 2.0 4.0 0.00 0.32 0.00 89 1013.5
20260905043517 70 15 1.0 4.0 0.00 0.32 0.00 89 1013.4
20260905043016 70 10 1.0 5.0 0.00 0.32 0.00 89 1013.4
20260905042516 69 4 2.0 5.0 0.00 0.32 0.00 89 1013.4
20260905042014 69 356 0.0 2.0 0.00 0.32 0.00 88 1013.4
20260905041514 69 281 1.0 2.0 0.00 0.32 0.00 88 1013.3
20260905041012 69 41 0.0 3.0 0.00 0.32 0.00 88 1013.4
20260905040511 69 226 1.0 3.0 0.00 0.32 0.00 88 1013.5
20260905040011 69 226 1.0 3.0 0.00 0.32 0.32 88 1013.4
20260905035510 69 173 0.0 2.0 0.00 0.32 0.32 88 1013.3
20260905035010 69 130 0.0 1.0 0.00 0.32 0.32 87 1013.3
20260905034510 69 41 0.0 2.0 0.00 0.32 0.32 88 1013.3
20260905034009 69 130 0.0 2.0 0.00 0.32 0.32 88 1013.4
20260905033509 69 116 0.0 2.0 0.00 0.32 0.32 88 1013.3
20260905033009 69 218 1.0 2.0 0.00 0.32 0.32 87 1013.4
20260905032509 69 208 1.0 2.0 0.00 0.32 0.32 87 1013.4
20260905032012 69 264 0.0 3.0 0.00 0.32 0.32 87 1013.5
20260905031509 69 188 1.0 3.0 0.00 0.32 0.32 87 1013.3
20260905031042 69 192 1.0 3.0 0.00 0.32 0.32 87 1013.2
20260905030511 70 41 0.0 2.0 0.00 0.32 0.32 87 1013.2
20260905030012 70 356 0.0 2.0 0.00 0.32 0.32 87 1013.3
20260905025508 70 173 1.0 2.0 0.00 0.32 0.32 87 1013.2
20260905025009 70 112 0.0 2.0 0.00 0.32 0.32 87 1013.3
20260905024507 70 112 0.0 1.0 0.00 0.32 0.32 87 1013.3
20260905024007 70 218 0.0 1.0 0.00 0.32 0.32 87 1013.4
20260905023507 70 41 0.0 1.0 0.00 0.32 0.32 87 1013.4
20260905023007 70 130 0.0 2.0 0.00 0.32 0.32 87 1013.4
20260905022510 70 130 0.0 3.0 0.00 0.32 0.32 87 1013.3
20260905022006 70 41 0.0 3.0 0.00 0.32 0.32 87 1013.4
20260905021507 70 319 0.0 3.0 0.00 0.32 0.32 87 1013.4
20260905021008 71 201 0.0 2.0 0.00 0.32 0.32 87 1013.4
20260905020506 71 319 0.0 2.0 0.00 0.32 0.32 87 1013.4
20260905020006 71 173 0.0 3.0 0.00 0.32 0.32 86 1013.4
20260905015506 71 51 1.0 3.0 0.00 0.32 0.32 86 1013.3
20260905015006 71 339 1.0 3.0 0.00 0.32 0.32 86 1013.5
20260905014506 71 356 1.0 3.0 0.00 0.32 0.32 86 1013.4
20260905014005 71 356 1.0 3.0 0.00 0.32 0.32 86 1013.4
20260905013505 71 18 1.0 3.0 0.00 0.32 0.32 86 1013.5
20260905013005 71 13 1.0 3.0 0.00 0.32 0.32 85 1013.5
20260905012505 71 130 0.0 2.0 0.00 0.32 0.32 85 1013.6
20260905012004 71 173 0.0 2.0 0.00 0.32 0.32 84 1013.6
20260905011504 71 23 1.0 2.0 0.00 0.32 0.32 84 1013.5
20260905011004 71 84 0.0 1.0 0.00 0.32 0.32 84 1013.5
20260905010504 71 173 0.0 2.0 0.00 0.32 0.32 84 1013.5
20260905010004 71 41 0.0 2.0 0.00 0.32 0.32 84 1013.4
20260905005503 71 218 0.0 2.0 0.00 0.32 0.32 83 1013.4
20260905005004 72 84 0.0 2.0 0.00 0.32 0.32 83 1013.3
20260905004700 72 84 0.0 2.0 0.00 0.32 0.32 83 1013.3
20260905004002 72 201 0.0 4.0 0.00 0.32 0.32 83 1013.3
20260905003502 72 229 2.0 4.0 0.00 0.32 0.32 83 1013.4
20260905003002 72 245 1.0 3.0 0.00 0.32 0.32 83 1013.4
20260905002601 72 218 0.0 3.0 0.00 0.32 0.32 82 1013.4